Wind_Speed
129 129 129 128 128 128 127 127 127 127 127 128 128 129 130 130 131 131 132 132 131 131 130 129 130 131 131 131 130 128 127 126 124 123 123 122 122 122 121 121 120 119 119 118 118 117 116 116 115 114 113 111 109 108 107 107 108 108 107 106 105 104 103 102 100 99 100 99 98 97 96 95 94 94 94 94 95 95 95 94 94 95 95 95 96
133 132 132 132 132 132 132 132 131 131 131 132 132 133 134 134 135 135 135 136 136 136 136 135 135 135 135 135 135 134 133 132 130 128 127 126 126 126 125 124 124 123 123 122 122 121 121 120 119 118 118 117 115 114 113 113 113 112 112 111 111 110 109 108 106 105 104 103 103 102 100 99 98 98 97 97 98 97 97 98 98 99 99 98 99
136 136 136 135 135 135 135 135 135 135 136 136 136 137 137 138 138 139 139 139 140 140 141 141 140 138 138 137 138 138 138 138 137 135 133 131 130 129 129 129 128 127 127 127 126 126 125 124 123 123 123 121 120 119 119 118 118 117 116 116 116 115 114 113 112 110 109 108 107 106 104 103 102 101 100 100 100 100 101 101 102 102 103 103 103
139 139 138 138 138 139 139 139 139 139 139 139 140 140 141 142 142 143 143 143 144 144 144 144 143 142 141 140 140 140 141 141 141 141 139 137 135 134 133 133 132 132 132 131 131 130 129 129 128 128 127 126 125 124 124 124 123 122 121 121 120 120 119 118 117 115 114 112 111 109 109 107 106 105 104 103 103 104 104 105 105 106 106 106 106
140 140 140 140 140 141 141 141 141 141 142 142 142 143 144 145 145 146 146 146 146 146 145 145 144 143 143 142 142 141 142 143 144 144 144 143 141 140 138 137 136 136 136 135 135 135 134 133 133 132 131 130 129 129 128 128 127 126 125 125 125 125 125 124 122 120 119 117 115 113 112 111 109 108 108 107 107 107 108 108 108 109 110 110 110
136 137 138 139 139 140 141 141 141 142 143 143 144 145 145 146 146 147 147 147 146 146 145 144 143 143 143 143 143 143 143 143 144 145 146 146 145 144 143 142 141 140 139 139 138 138 138 138 137 136 135 134 133 133 133 132 131 130 129 129 129 130 130 129 127 126 124 122 119 117 115 114 113 112 111 111 110 110 111 111 111 112 113 114 115
131 133 134 135 136 137 138 139 140 141 142 143 143 144 145 145 145 145 145 145 144 143 142 141 140 140 141 141 142 143 143 144 144 145 146 147 147 146 145 145 144 143 142 142 141 141 140 140 140 140 140 139 138 137 136 136 135 134 133 132 133 133 133 133 132 131 129 126 123 120 118 117 116 116 115 114 113 113 114 115 116 117 118 118 118
127 129 131 132 133 134 135 136 137 138 139 140 141 141 142 142 142 142 141 140 140 139 138 137 137 136 137 138 139 140 141 142 143 144 145 146 146 146 146 146 145 145 144 144 143 143 142 142 142 142 142 142 141 141 140 139 138 137 136 136 136 136 136 136 135 135 134 131 128 124 121 120 119 118 117 117 116 116 118 120 122 122 122 122 121
123 124 126 128 129 130 131 132 132 133 134 135 136 137 137 138 138 139 138 137 136 135 134 133 133 132 133 133 135 136 137 138 140 141 143 144 144 145 145 145 145 145 145 145 144 144 143 143 143 143 143 143 143 143 143 142 141 140 139 139 139 138 138 138 138 137 137 135 132 128 125 122 121 121 121 121 121 122 123 125 125 126 126 126 125
119 120 122 123 124 125 126 126 127 127 128 130 131 132 133 134 135 136 136 136 135 134 132 131 130 129 129 129 129 130 131 133 135 137 138 139 141 141 141 141 142 143 143 143 143 143 143 143 143 143 143 144 144 144 144 144 144 143 142 142 142 141 141 140 140 140 140 138 136 132 129 126 125 126 126 127 128 129 130 130 131 131 131 130 129
116 117 118 119 120 120 121 121 122 123 124 125 127 128 129 131 132 133 134 134 133 132 131 130 129 128 127 127 126 126 126 127 129 131 133 134 136 137 137 137 137 138 138 139 139 140 140 141 141 142 142 143 143 144 144 144 144 144 144 145 145 145 144 144 144 144 144 143 140 137 134 132 131 132 133 134 136 137 138 139 138 138 136 134 132
111 112 113 114 115 115 116 116 117 117 119 120 121 123 124 126 127 129 130 131 131 130 130 129 129 128 127 126 125 124 124 124 124 126 127 129 130 132 133 133 133 133 133 133 134 134 135 135 136 137 137 138 139 140 141 142 142 143 143 144 144 145 145 145 146 146 147 146 144 140 138 136 136 136 136 137 138 138 138 138 138 137 136 136 135
107 107 108 109 109 110 110 110 111 111 112 114 114 115 117 118 120 122 123 125 126 127 127 127 128 127 127 127 125 124 123 123 123 123 124 125 126 127 128 128 129 129 129 128 129 129 129 130 130 131 131 132 133 134 135 136 137 137 138 138 139 139 140 141 142 143 143 142 140 137 134 133 132 132 130 130 130 130 131 131 131 131 132 132 132
103 104 105 106 106 107 108 108 108 108 108 109 109 110 110 112 113 115 116 118 119 121 122 123 124 125 126 126 125 124 123 123 123 123 123 123 124 124 124 124 124 125 125 125 125 125 125 125 125 125 126 127 128 128 129 130 131 132 132 132 132 131 132 132 133 134 134 134 131 128 125 124 124 123 122 122 122 123 123 123 124 125 125 125 125
100 101 101 102 104 105 106 106 106 106 106 106 106 106 107 108 108 109 111 112 113 115 116 117 119 120 121 122 123 122 122 122 123 123 123 123 124 124 123 121 120 120 121 122 122 122 122 122 122 122 122 123 124 124 125 126 126 127 127 126 126 125 125 125 125 125 126 126 123 120 118 118 117 117 117 116 116 117 118 118 119 119 119 119 118
97 97 98 99 100 101 102 102 103 103 103 103 103 103 104 105 106 106 108 109 110 111 112 113 114 116 117 118 119 119 119 120 121 122 122 122 123 123 123 121 119 117 117 117 119 120 120 120 120 119 119 120 121 122 123 123 123 123 123 122 122 121 121 120 119 120 120 120 118 115 114 114 114 114 113 113 112 113 114 115 115 115 115 114 113
95 96 96 97 97 97 98 98 98 98 99 100 100 100 101 102 103 104 105 106 107 108 110 111 111 112 113 114 116 117 116 116 118 119 120 121 121 122 122 121 119 117 115 115 115 116 117 118 118 118 117 117 118 119 121 121 120 119 119 119 119 118 117 117 117 117 117 117 115 114 112 111 111 112 111 110 110 110 111 111 111 111 111 110 109
94 94 94 94 94 94 95 95 94 94 95 95 96 97 98 99 100 101 102 103 104 105 107 108 109 110 111 112 113 114 114 114 115 117 118 119 120 120 120 119 118 116 114 114 114 115 115 116 117 117 116 115 116 117 119 119 118 116 116 116 116 115 114 114 115 116 116 116 115 113 111 110 110 110 110 109 108 108 109 108 108 109 108 107 106
91 91 91 92 92 92 92 92 92 91 91 92 92 93 94 96 97 98 99 100 100 101 103 105 106 107 108 109 110 111 112 112 113 115 117 118 119 119 118 117 116 114 113 112 113 114 114 113 114 115 115 114 115 116 117 118 117 115 114 114 114 111 111 112 115 116 115 115 114 113 111 110 110 110 109 108 107 107 106 106 107 107 106 105 104
88 88 88 89 89 90 90 90 90 90 90 89 89 90 90 92 93 94 96 97 97 98 99 101 103 103 105 107 107 108 109 109 111 113 116 117 118 119 118 115 113 112 112 112 112 112 112 112 111 112 113 114 115 116 116 116 115 114 113 112 110 109 110 112 113 113 113 114 113 112 111 110 109 109 108 107 106 105 105 106 106 106 105 105 104
85 86 86 86 87 88 89 89 89 89 89 89 88 88 89 90 90 91 91 92 93 93 94 96 98 99 101 103 105 105 106 107 108 110 113 116 117 118 118 115 111 110 111 112 112 110 109 109 110 110 111 113 115 116 116 115 114 113 111 110 108 108 111 113 112 111 111 112 111 111 110 109 108 107 106 106 105 105 105 106 106 106 106 105 103
84 84 85 85 86 87 88 88 88 88 88 89 88 88 89 90 90 89 89 89 89 90 91 93 94 95 95 98 101 102 104 105 106 107 109 113 115 116 116 114 112 111 110 110 111 110 108 107 108 109 110 111 113 115 116 115 114 112 109 108 108 109 110 111 110 110 111 110 109 108 108 107 106 105 105 105 105 105 105 105 106 106 106 105 103
83 83 84 85 86 86 86 87 88 88 88 89 89 88 89 90 90 90 89 89 89 89 90 91 91 91 91 93 96 98 100 102 103 104 106 109 111 113 113 112 111 111 110 108 108 109 109 107 106 107 109 110 112 113 115 115 114 111 108 107 107 109 109 109 108 108 109 109 108 107 106 105 104 104 103 104 104 105 105 105 106 106 107 106 106
82 83 83 84 84 85 86 86 87 88 88 88 88 88 88 89 89 90 90 89 89 89 90 90 90 90 90 91 93 96 97 99 100 102 103 104 107 109 110 110 110 110 109 108 107 107 108 107 106 106 107 109 111 112 113 113 113 111 108 107 108 108 108 108 106 106 107 107 107 105 105 105 104 103 103 103 104 104 104 105 106 107 108 108 108
82 82 83 83 84 85 86 87 88 88 88 88 88 88 88 88 88 89 89 89 89 89 89 90 89 89 89 90 92 94 96 97 98 100 101 101 103 104 105 106 107 107 107 107 106 106 107 108 107 106 105 106 107 109 110 111 111 110 109 109 110 109 107 105 104 104 104 104 105 105 105 105 105 104 104 104 103 103 103 104 105 106 107 108 107
81 82 82 83 84 85 85 86 87 88 88 88 88 87 87 88 88 89 89 88 88 88 88 88 88 88 88 89 91 93 94 95 96 98 99 99 100 101 101 102 102 103 104 104 104 104 106 107 107 106 104 103 103 104 105 107 108 108 108 109 110 110 107 104 103 103 103 103 103 105 106 106 106 106 105 104 103 103 103 103 105 106 106 106 107
80 80 81 82 83 83 83 84 85 86 86 86 86 86 86 87 86 87 87 86 86 86 86 85 86 86 86 87 89 90 92 93 94 96 97 98 98 98 98 98 99 100 101 101 101 101 103 105 106 106 104 102 100 99 99 101 103 105 106 107 108 109 108 107 104 103 103 103 104 105 106 106 106 106 105 104 104 103 103 103 104 105 106 107 107
79 80 81 81 81 81 81 82 82 82 83 83 83 83 84 84 83 83 83 83 82 82 82 82 82 82 82 83 85 86 88 89 90 91 93 94 95 95 95 95 96 97 97 98 98 99 100 102 103 103 103 101 99 97 96 97 99 102 104 105 106 106 107 108 106 104 103 103 104 105 105 105 105 104 104 104 104 104 104 104 105 106 107 108 109
80 80 80 80 80 79 79 79 79 79 79 80 80 80 80 80 79 79 79 79 78 77 77 77 78 78 78 80 81 82 84 85 86 86 88 89 90 91 91 91 92 93 94 95 96 96 97 98 99 100 100 100 99 98 97 97 98 99 101 103 105 105 105 105 105 105 104 104 105 105 105 104 104 103 104 104 105 105 104 105 105 106 107 109 110
78 79 78 77 77 76 76 76 76 76 77 77 78 78 78 78 77 77 77 76 76 75 74 74 75 75 75 77 78 79 80 82 83 83 83 85 85 86 86 87 87 88 90 92 92 92 92 93 95 97 98 99 98 98 97 97 98 99 100 100 102 104 104 103 102 103 104 105 106 105 105 104 103 103 103 104 104 105 105 105 106 107 108 110 111
75 75 74 74 74 74 74 74 74 74 75 75 75 76 77 77 76 75 75 74 74 73 72 71 71 72 72 74 75 76 77 78 79 80 80 81 81 82 83 83 84 84 85 86 87 86 87 88 91 94 96 97 97 97 97 97 97 98 99 99 100 101 102 101 99 100 102 104 105 105 104 104 103 103 103 104 104 104 105 106 107 108 109 110 111
72 72 71 71 71 72 72 72 73 73 73 74 74 74 75 75 76 76 74 73 72 72 71 70 69 69 70 71 72 74 75 76 76 76 76 77 78 79 79 80 80 81 81 81 80 81 82 83 86 90 93 95 95 95 95 95 95 96 98 99 98 98 99 99 99 98 99 101 103 103 103 103 103 103 103 104 104 105 105 106 107 108 109 109 110
70 69 69 68 69 70 70 71 71 71 71 72 72 72 73 73 74 74 74 73 72 70 69 68 67 67 68 68 69 71 72 73 73 73 73 74 75 76 76 77 77 78 78 77 76 77 79 80 82 85 89 92 93 93 92 92 92 93 96 98 98 97 97 97 98 97 96 97 98 100 101 102 102 103 103 104 105 105 106 106 106 106 107 107 108
68 68 67 67 67 68 69 69 69 69 70 70 70 70 70 70 70 71 72 73 73 71 69 67 66 65 66 67 68 68 69 69 70 70 70 70 71 72 73 74 74 75 74 74 74 75 77 78 79 82 85 88 89 89 89 88 89 91 93 95 96 96 95 95 96 96 95 94 94 96 98 100 101 102 103 104 105 105 105 105 105 104 105 106 107
67 67 67 66 66 66 66 67 67 67 67 68 68 68 68 68 68 68 68 69 70 71 70 67 65 63 63 64 66 66 66 67 67 67 67 68 68 68 69 70 71 72 72 72 72 73 75 76 78 79 81 84 85 85 85 86 87 88 90 92 93 94 93 93 93 94 94 93 92 93 95 98 100 102 103 103 103 104 103 103 103 104 104 105 106
66 66 66 65 65 65 64 64 64 64 65 65 65 66 66 66 66 65 65 66 66 68 68 67 66 63 61 61 62 64 64 65 65 65 65 65 65 66 67 67 68 69 69 69 70 71 73 74 76 77 79 81 82 82 83 84 85 86 86 88 90 91 91 91 91 92 94 94 93 92 93 95 98 100 101 101 101 101 102 102 103 103 104 105 105
64 64 64 64 63 63 63 63 63 62 63 63 64 64 64 64 64 64 63 63 63 64 65 65 65 64 62 60 60 61 61 62 63 62 62 63 63 64 65 66 66 66 66 66 68 69 71 73 74 76 77 78 78 78 80 82 83 83 83 85 86 88 89 89 89 90 92 93 93 93 92 93 95 97 98 98 98 99 99 100 101 102 103 103 104
63 62 62 62 62 62 62 62 62 61 61 62 62 62 62 62 62 62 62 61 61 62 62 62 62 62 62 60 59 59 59 59 60 60 60 60 61 61 62 63 64 64 63 64 65 67 69 71 72 74 75 75 75 76 77 79 81 81 81 82 83 85 85 86 86 87 89 91 92 93 93 93 93 93 94 95 95 95 96 98 99 100 101 102 103
62 62 61 61 61 60 60 61 61 61 61 61 60 61 61 60 60 60 60 60 59 59 60 60 60 60 60 60 59 58 57 56 57 57 57 57 58 59 60 61 61 62 62 61 62 64 66 68 70 71 72 72 73 75 76 78 79 79 79 79 80 81 82 83 84 85 87 89 91 92 93 94 93 91 90 90 91 93 94 95 96 97 99 101 102
61 61 61 61 60 60 59 59 60 60 60 60 59 59 59 59 59 58 58 58 58 57 57 58 58 58 58 58 59 58 57 55 54 54 55 55 55 56 57 58 58 59 60 60 60 62 63 65 67 68 70 71 73 74 75 76 76 77 76 76 77 78 79 80 82 83 84 86 88 89 91 92 92 90 88 87 88 90 92 93 94 95 96 98 99
60 60 60 60 59 59 59 59 59 58 58 58 58 58 57 57 56 56 56 56 56 55 55 55 56 56 56 57 57 57 57 55 54 52 52 53 53 53 54 55 55 56 58 58 59 60 61 63 65 67 69 71 72 72 72 73 73 73 74 74 74 74 75 77 78 80 81 83 85 87 88 90 90 90 89 88 88 88 89 91 92 93 94 96 97
60 59 59 58 58 58 58 58 58 58 58 57 57 56 56 55 55 55 54 54 54 54 54 54 54 54 55 55 55 56 56 55 54 52 51 51 51 51 52 52 53 54 55 57 58 59 60 62 64 65 67 69 69 69 70 70 70 70 70 71 71 71 72 73 75 76 79 81 83 85 86 88 89 89 89 89 89 89 89 90 90 91 92 93 95
58 58 57 57 57 57 57 57 57 57 57 57 56 55 54 54 53 53 53 52 52 52 52 52 52 53 53 53 53 54 54 54 54 52 51 50 49 49 50 50 51 52 53 55 56 58 59 61 62 63 64 66 67 67 67 68 67 67 67 68 68 68 69 70 72 74 76 79 81 83 84 86 87 88 89 89 90 90 91 91 91 91 91 92 93
57 56 56 55 55 55 55 55 56 56 56 56 55 54 54 53 53 52 52 51 51 51 51 51 51 51 52 52 52 52 52 52 52 52 51 50 49 48 49 49 49 50 51 52 54 56 57 59 59 60 61 63 64 64 65 65 65 65 65 66 66 66 67 68 70 72 74 76 79 81 83 84 86 87 89 90 91 91 92 92 92 92 92 92 92
56 55 54 54 53 53 53 53 54 54 55 55 54 53 52 52 52 52 52 51 50 50 49 49 50 50 50 50 51 51 51 51 51 51 50 49 49 48 47 48 48 49 49 50 52 53 55 57 57 58 59 60 61 62 62 63 63 64 64 64 64 65 66 67 69 71 73 75 77 79 81 83 85 86 88 90 91 92 92 92 92 92 92 92 92
54 54 54 53 52 52 51 52 52 52 53 53 53 52 52 51 51 51 50 50 49 49 48 47 48 48 48 48 48 49 49 49 49 49 49 49 48 47 47 47 47 47 48 49 50 51 53 55 55 56 57 58 59 59 60 61 62 63 63 63 63 64 66 67 69 71 73 74 76 78 79 81 83 85 87 89 90 91 91 91 91 91 92 93 93
53 53 52 52 51 50 50 50 51 51 51 51 51 51 51 50 50 49 49 48 48 47 46 46 45 46 46 46 46 47 47 48 48 48 48 47 47 47 46 46 46 46 47 48 48 49 51 52 53 54 55 56 57 58 59 60 61 62 62 62 63 64 66 67 69 70 72 73 74 76 78 79 82 83 85 87 88 89 89 90 91 92 93 94 94
52 51 51 50 50 50 49 49 50 50 50 50 49 49 49 49 49 48 47 46 46 45 45 45 44 44 45 45 45 45 45 45 46 46 46 46 46 46 45 44 45 45 46 47 47 48 49 50 51 52 53 54 55 56 58 59 60 60 61 62 62 64 65 66 67 68 70 71 73 74 76 78 79 81 83 85 86 87 88 90 91 92 93 93 94
50 50 49 49 49 49 49 49 49 49 48 48 48 48 47 48 48 47 46 44 43 43 43 44 44 44 44 44 44 44 43 43 44 44 44 44 44 44 44 43 43 44 45 46 46 47 48 49 49 50 51 52 53 55 56 57 58 59 60 61 62 62 63 64 65 67 68 69 70 72 73 75 77 78 80 82 84 85 87 88 89 90 90 91 92
49 48 48 47 47 48 48 48 48 48 47 47 47 46 46 47 47 47 45 43 42 41 42 42 43 43 43 43 43 43 43 42 41 42 42 42 42 42 42 42 42 42 43 44 45 46 47 48 49 49 50 50 52 53 54 56 57 58 59 60 60 61 62 63 64 65 66 66 68 69 70 72 74 75 77 79 81 83 85 86 87 88 88 89 90
48 47 47 46 46 46 47 47 47 46 46 45 45 45 45 47 47 46 45 43 42 41 41 41 41 41 41 41 41 41 42 41 40 40 40 40 41 41 40 40 40 40 41 42 44 45 46 47 48 49 50 50 50 51 52 54 55 56 57 58 59 60 61 62 62 63 64 65 66 67 68 69 71 73 75 77 78 80 82 84 85 86 87 87 88
Wind_Direction
263 263 263 263 263 264 265 265 266 267 267 268 268 268 268 268 268 268 268 269 268 268 267 267 266 265 264 263 263 263 262 262 261 261 261 261 261 261 261 262 262 262 262 263 263 263 264 264 264 264 264 263 261 261 260 260 261 261 262 262 263 263 264 264 264 264 264 265 265 265 265 266 265 265 264 264 264 264 264 265 265 266 266 267 267
264 264 264 264 263 263 264 264 265 266 266 267 267 267 267 267 268 268 268 268 268 268 268 268 267 265 264 263 262 262 261 261 261 261 260 260 260 260 260 260 261 261 261 261 262 262 262 263 263 263 264 264 263 263 262 262 261 262 262 262 262 262 263 263 263 263 263 264 264 264 265 265 265 265 265 265 265 265 265 265 265 265 264 265 265
264 264 264 264 264 264 264 264 264 265 265 265 266 266 266 267 267 267 267 267 267 268 268 268 267 266 264 262 261 260 260 260 260 260 260 259 259 259 259 259 259 260 260 260 260 260 261 261 262 262 262 262 263 263 263 263 263 263 262 262 263 263 263 263 262 262 262 262 263 263 264 264 264 264 265 265 265 265 265 265 265 265 264 264 264
263 263 263 264 264 264 264 264 264 264 264 264 265 265 266 266 266 266 267 267 267 267 267 267 266 265 264 263 261 259 259 259 259 259 260 259 259 258 258 258 258 258 259 259 259 259 260 260 260 260 261 261 261 262 262 263 263 263 263 263 263 263 263 263 263 263 262 262 262 262 263 263 264 264 265 265 265 265 265 265 265 265 265 265 265
263 263 264 264 264 264 264 264 264 264 264 264 264 264 265 265 266 266 266 266 266 266 266 265 265 264 263 262 261 260 259 258 258 258 259 259 259 259 258 258 257 257 257 257 258 258 258 259 259 259 259 259 260 260 260 260 261 262 262 263 263 263 263 263 263 263 263 262 262 262 262 263 263 264 264 264 264 265 265 265 265 265 265 264 264
264 264 264 264 264 265 265 265 265 265 265 265 265 265 265 265 265 266 266 266 266 265 265 264 264 263 262 262 261 260 259 258 258 258 258 258 258 258 258 258 258 257 256 256 256 256 257 257 258 258 258 258 259 259 259 259 259 260 260 261 261 262 262 263 263 263 262 262 262 262 262 263 263 263 263 263 264 264 265 265 265 265 264 264 263
265 265 264 264 264 264 265 265 265 265 265 266 266 266 266 265 265 265 265 265 265 265 265 264 264 263 262 262 261 260 260 259 259 258 258 258 258 258 258 258 258 257 257 257 256 256 256 256 256 257 257 258 258 258 258 258 259 259 259 260 260 261 261 262 262 262 262 262 262 262 262 262 263 263 263 264 264 264 265 265 265 264 264 263 263
265 265 264 264 264 264 264 264 264 265 265 265 265 266 266 266 266 266 265 265 265 265 265 264 264 263 262 262 261 261 260 260 259 259 259 258 258 258 258 258 258 257 257 257 257 256 256 256 255 256 256 256 257 257 258 258 258 258 259 259 259 260 260 261 261 262 262 262 262 262 262 262 262 263 263 264 264 264 264 264 263 263 264 264 264
264 264 264 264 264 264 264 264 264 264 265 265 265 265 265 266 266 266 266 266 265 265 265 265 264 264 263 262 262 261 261 260 260 260 259 259 259 258 258 258 258 258 258 257 257 257 257 256 256 256 256 256 256 256 257 257 257 258 258 259 259 259 260 260 261 262 262 262 262 262 262 262 262 262 263 263 263 263 263 263 263 263 263 263 264
264 264 264 264 264 264 264 264 264 264 264 264 265 265 265 265 266 266 266 266 266 266 266 265 265 265 264 263 262 262 262 261 261 261 260 260 260 259 259 258 258 258 258 258 258 257 257 257 257 257 257 257 256 256 256 256 256 257 257 258 258 259 259 260 260 261 262 262 262 262 262 262 262 262 263 263 263 263 263 264 264 263 263 263 263
266 265 265 265 265 265 265 265 264 264 264 264 264 264 264 264 265 265 266 266 266 266 266 266 266 265 265 265 264 263 262 262 261 261 261 261 261 260 260 259 259 258 258 258 258 258 258 258 257 257 257 257 257 257 257 257 257 257 257 257 257 258 258 259 260 260 261 261 262 262 262 262 262 262 263 263 263 264 264 264 263 263 263 263 264
268 268 268 267 267 266 266 266 265 265 264 264 264 263 263 264 264 264 265 265 266 266 266 266 266 266 266 265 265 264 264 263 262 262 261 261 260 260 260 260 260 260 259 259 258 258 258 258 258 258 258 258 258 258 258 258 258 258 257 257 258 258 258 259 259 260 261 261 262 262 262 262 262 263 263 263 263 263 263 263 262 262 263 263 264
270 270 270 269 269 269 268 267 267 266 266 265 265 264 264 264 264 264 264 265 265 266 266 266 266 266 266 266 265 265 264 264 263 263 262 261 261 260 260 260 260 260 260 260 259 259 259 258 258 258 258 258 258 258 258 258 258 258 258 258 258 258 258 259 259 260 260 261 262 262 262 262 262 262 262 261 261 261 261 262 262 262 263 263 264
270 270 270 270 270 270 269 269 268 267 267 266 266 266 265 265 264 264 264 264 264 265 265 265 265 266 266 266 266 266 265 265 265 264 263 263 262 261 260 259 259 259 260 260 260 259 259 259 258 258 258 258 258 258 258 258 258 258 258 258 258 258 258 258 259 259 260 261 261 261 261 261 261 260 260 259 259 260 261 261 262 262 263 263 264
271 271 270 270 270 270 269 269 269 269 268 267 267 267 266 266 265 265 264 264 264 264 264 264 264 264 265 265 265 265 265 265 265 264 264 264 264 263 262 261 260 259 259 259 260 260 259 259 259 258 258 258 258 258 258 258 258 258 258 258 258 258 258 259 259 259 260 260 261 261 260 260 260 259 259 259 259 260 260 261 261 261 262 263 264
273 273 272 271 271 270 270 270 269 269 269 269 268 267 267 266 266 265 264 264 263 263 263 263 263 263 263 264 264 264 264 264 264 264 264 264 264 264 263 263 262 260 259 259 259 259 259 259 259 258 258 258 258 258 258 257 257 258 258 258 259 259 259 259 259 259 260 260 260 260 259 259 259 259 259 259 259 260 260 260 261 261 262 263 264
275 275 274 273 273 272 272 271 271 270 270 270 269 268 268 267 266 265 264 264 263 263 263 263 262 262 263 263 263 263 263 263 263 264 264 264 263 263 263 263 263 262 261 260 259 259 259 259 259 258 258 258 258 258 258 258 257 257 257 258 258 258 259 259 259 259 260 260 260 260 259 259 259 259 259 259 259 259 260 260 261 262 262 263 263
276 276 275 275 275 274 273 273 272 271 270 270 269 269 268 267 266 265 265 264 263 263 263 263 263 262 262 262 262 263 263 263 263 264 264 263 263 263 263 263 262 262 261 261 260 260 259 259 259 259 258 257 257 257 257 258 258 257 257 257 257 257 258 259 259 259 259 259 259 259 259 259 259 259 259 259 260 260 260 261 261 262 262 263 263
277 277 277 276 276 276 275 274 273 272 271 270 269 268 267 267 267 266 266 265 264 264 263 263 263 263 262 262 262 262 262 262 263 263 263 263 263 263 263 263 263 262 262 261 260 260 259 259 258 259 259 258 257 257 257 257 257 257 257 257 257 257 257 257 257 258 258 258 259 259 259 259 259 259 259 260 260 260 261 261 262 262 263 263 263
277 277 277 276 276 276 276 275 274 274 272 271 270 269 269 268 267 266 266 265 265 264 264 264 264 263 263 263 262 262 261 261 261 261 262 263 263 263 263 262 262 262 262 262 261 260 259 259 259 258 258 258 258 257 257 257 257 257 257 257 257 257 256 256 255 256 256 257 257 258 258 258 258 258 259 259 260 261 261 262 262 263 263 263 264
278 277 277 276 276 275 275 274 274 274 273 273 272 272 271 269 268 267 266 266 265 265 264 264 263 263 263 263 263 263 262 261 260 260 260 261 261 262 263 263 262 262 261 261 261 260 260 259 259 259 258 258 258 258 258 257 257 257 256 256 256 256 256 256 256 256 256 256 256 257 257 258 258 259 259 259 260 260 261 262 262 263 263 264 264
278 277 277 276 276 275 274 274 274 274 274 273 273 272 271 271 270 269 268 268 267 266 265 264 263 263 262 263 263 263 263 262 261 260 260 261 261 261 262 262 262 262 261 260 260 261 260 259 258 258 258 258 258 258 258 258 258 257 257 256 256 255 255 255 256 256 256 256 256 257 257 258 258 258 259 259 260 260 260 261 262 262 263 264 264
277 277 276 276 276 275 275 275 275 274 273 273 272 272 272 272 271 271 270 269 268 267 266 265 264 264 263 262 262 262 262 262 261 260 260 260 261 261 262 262 262 262 261 261 260 260 260 259 257 257 257 257 257 257 257 258 258 258 258 257 256 256 255 255 255 255 256 257 257 257 258 258 258 258 258 258 259 259 259 260 260 261 262 262 263
277 277 277 276 276 276 276 275 274 274 273 273 272 272 272 271 271 271 270 270 269 268 267 266 265 265 264 263 262 262 262 261 261 261 260 259 259 260 261 261 262 262 262 261 261 260 260 260 258 256 255 255 255 256 256 257 258 258 258 257 257 256 256 255 255 255 255 256 257 258 258 258 258 258 257 257 257 258 258 258 259 259 260 260 261
278 277 277 277 276 276 275 275 274 274 274 273 273 272 272 272 271 271 270 270 269 268 268 267 266 265 264 264 263 262 262 262 261 261 261 260 260 260 260 260 261 261 261 261 261 260 260 260 259 258 256 254 254 255 255 256 256 256 256 257 257 256 256 256 256 256 255 256 256 257 257 258 258 257 257 257 257 257 257 257 258 258 259 260 260
278 277 277 276 276 275 275 275 275 275 275 274 274 274 273 273 272 271 271 270 270 269 269 268 267 266 265 264 263 263 263 262 262 262 261 261 260 260 260 260 260 260 260 260 260 260 260 260 260 260 258 256 255 254 254 255 256 256 256 255 256 257 257 256 256 256 256 255 255 255 255 256 256 256 257 257 257 257 257 257 258 258 259 259 260
279 278 277 276 276 276 276 275 275 275 275 275 275 274 274 273 272 272 271 271 270 270 269 269 268 267 266 266 265 264 263 262 262 262 262 261 261 260 260 260 259 259 259 259 259 259 259 259 260 260 260 259 258 256 255 255 255 256 256 255 255 256 257 257 256 255 255 255 254 254 254 254 255 255 256 257 257 257 257 258 258 258 259 259 260
280 279 278 278 278 277 277 277 277 277 277 276 276 275 274 274 273 272 272 271 271 270 270 269 268 267 266 266 265 264 264 263 262 261 261 261 261 260 260 259 259 259 258 258 257 257 257 257 258 259 260 260 260 259 258 256 255 255 255 255 255 254 254 255 256 255 255 254 254 254 254 254 254 255 255 255 256 256 257 257 257 258 258 259 259
281 280 280 280 279 279 279 279 278 278 278 278 277 276 276 275 274 274 273 272 271 270 270 269 269 268 267 266 265 264 264 263 262 262 261 261 261 261 260 259 259 258 258 257 256 256 256 256 257 258 259 259 259 259 258 258 257 255 254 254 254 254 253 253 254 255 254 254 253 253 253 253 254 254 254 254 255 255 255 256 256 256 257 258 258
280 280 280 280 280 280 280 279 279 279 278 278 278 278 277 276 276 275 275 274 273 272 270 269 269 268 268 267 266 265 264 264 263 262 262 261 261 261 260 260 259 258 257 256 256 255 255 255 255 256 256 257 257 257 256 256 256 256 255 254 254 254 253 252 251 252 253 253 253 253 253 253 253 253 253 253 254 254 254 255 255 255 256 256 257
280 280 281 281 281 281 280 280 280 279 279 279 279 279 279 279 278 276 275 275 274 273 272 270 270 269 268 268 267 266 264 263 263 262 262 262 261 261 260 260 259 259 257 257 256 256 255 254 254 254 254 255 255 254 254 253 254 254 255 255 254 253 253 253 251 250 251 252 252 253 253 253 253 253 252 252 252 253 253 253 253 254 254 255 256
281 281 281 281 281 281 281 281 280 280 280 280 280 280 280 280 280 279 278 276 275 274 273 272 271 270 269 268 267 267 266 264 263 263 262 262 262 261 261 260 260 259 259 258 257 256 255 254 253 253 253 253 253 253 252 251 251 252 253 254 254 253 253 253 252 251 249 249 251 251 252 252 252 252 252 252 252 252 251 252 252 252 253 254 255
282 282 282 282 281 281 281 281 281 281 280 280 280 280 280 280 280 280 280 279 277 275 274 274 273 272 271 269 268 267 266 266 265 264 262 262 261 261 261 260 260 259 259 258 257 256 255 253 252 251 252 252 252 252 251 251 250 250 250 251 252 252 252 252 252 252 250 249 249 250 251 251 252 252 252 252 252 252 252 252 252 252 253 254 255
283 283 282 282 282 281 281 281 281 281 281 281 280 280 280 280 279 280 280 280 279 278 276 274 273 273 272 271 270 268 267 266 266 265 264 263 261 261 260 260 260 259 258 257 256 255 254 253 252 251 251 251 251 251 251 250 250 249 249 249 250 251 251 251 252 252 252 250 249 249 249 250 251 251 251 251 252 252 252 253 253 253 254 254 254
284 283 283 283 282 282 282 281 281 281 281 281 281 280 280 280 279 279 279 279 279 279 278 277 275 273 272 271 271 270 269 267 266 266 265 264 263 261 260 260 259 258 257 256 255 254 253 253 252 251 250 251 251 251 250 250 249 248 248 248 249 249 250 250 250 251 252 251 250 248 247 248 249 250 250 250 251 252 252 253 253 253 254 254 254
284 284 284 284 283 283 283 282 282 282 282 281 281 281 280 280 280 279 279 278 278 279 279 278 277 275 273 272 271 270 269 268 267 266 265 264 263 262 261 260 259 258 257 256 255 254 253 253 252 251 250 250 250 250 250 250 249 248 248 248 248 248 249 249 249 250 250 251 250 249 247 247 248 249 249 250 250 251 252 252 252 253 253 254 254
285 285 285 285 285 285 284 284 283 283 282 282 282 282 281 281 281 280 279 279 279 278 278 278 278 277 275 273 271 270 270 269 268 267 266 265 264 263 262 261 260 258 256 255 254 253 253 252 251 251 250 250 250 250 250 250 250 249 248 248 248 248 248 248 248 248 249 250 250 250 249 248 247 248 249 250 250 251 251 252 252 253 254 254 255
286 286 286 286 286 286 285 285 285 284 283 283 282 282 282 281 281 281 280 279 279 278 278 278 277 277 277 275 273 272 270 269 269 268 267 266 265 264 262 261 261 259 257 255 253 252 252 252 251 251 251 251 250 250 249 249 249 249 248 248 247 247 247 247 247 248 248 249 250 250 250 250 249 248 249 250 250 251 251 252 252 253 253 254 255
287 287 286 286 286 286 285 285 285 284 284 283 283 282 282 282 281 281 280 279 279 278 278 278 277 277 277 276 275 274 272 271 270 269 268 267 265 264 263 262 261 260 258 256 254 252 252 251 251 251 250 250 250 249 249 248 248 248 248 247 247 247 247 247 247 247 247 248 249 249 250 251 251 250 249 249 250 251 252 252 252 252 253 254 254
287 287 287 286 286 286 285 285 284 284 284 284 283 282 282 282 282 281 281 280 279 279 278 278 277 277 277 276 276 275 274 273 271 270 269 268 267 265 264 262 261 260 259 257 255 253 251 251 250 250 249 249 248 248 248 248 249 249 248 248 247 247 247 247 246 246 246 247 248 249 250 251 252 252 251 250 250 250 251 252 252 253 253 254 254
287 287 286 286 286 286 285 285 285 285 284 284 284 284 283 283 283 282 282 281 280 280 279 279 278 278 277 277 277 276 276 275 274 272 270 269 268 266 265 263 261 260 258 257 256 254 252 250 249 248 248 248 248 248 248 249 249 249 249 248 247 247 246 246 246 246 246 246 247 248 249 250 251 252 252 252 251 251 251 251 252 252 253 254 254
286 286 286 286 286 286 286 286 285 285 285 285 284 284 284 284 283 283 282 282 281 281 280 279 279 278 278 278 277 277 276 276 275 274 272 270 268 267 265 264 262 260 258 257 256 254 253 251 249 249 249 249 249 249 249 249 249 249 248 248 248 247 246 246 246 246 245 246 246 246 247 248 249 250 251 252 252 252 251 251 251 251 251 252 253
286 286 286 286 286 286 286 286 286 286 286 285 285 285 284 284 284 283 283 282 282 282 281 280 279 279 278 278 277 277 277 276 275 274 273 271 269 267 266 264 262 260 259 257 256 255 254 252 251 250 250 250 250 250 250 250 250 249 249 248 248 247 246 245 245 244 244 244 244 245 245 246 247 248 249 249 250 251 251 251 251 251 251 251 251
285 285 285 286 286 286 286 286 286 286 286 286 286 286 286 285 285 284 283 283 282 282 281 280 279 279 278 278 277 277 276 276 275 275 273 272 270 268 266 265 263 261 259 257 256 255 255 254 253 251 251 250 251 251 251 251 250 250 249 248 248 247 246 244 244 244 243 243 243 244 244 244 245 246 246 247 248 249 249 250 251 251 251 251 251
285 285 285 285 286 286 286 286 286 286 286 286 286 286 285 285 285 284 284 283 282 281 281 280 280 279 278 277 277 277 276 276 275 274 273 272 270 269 267 265 264 262 260 259 257 256 255 254 253 252 251 251 250 250 250 250 250 249 248 248 247 246 245 244 243 243 242 242 242 243 243 243 244 244 245 246 246 247 248 249 250 251 252 252 252
285 285 286 286 286 285 285 285 285 285 285 285 285 285 285 284 283 283 283 283 282 282 281 280 279 279 278 277 277 277 277 276 275 275 273 272 270 269 267 266 264 262 261 260 258 256 255 255 254 253 252 251 250 250 250 249 249 249 248 247 246 245 244 243 243 242 242 242 242 242 243 243 243 244 244 245 246 247 248 248 249 250 251 252 252
285 285 286 286 286 286 285 285 285 284 285 285 285 285 284 283 283 282 282 282 283 283 282 281 280 280 279 278 277 277 276 276 276 275 274 273 271 269 267 266 264 262 261 260 259 257 256 255 254 253 253 252 251 250 249 249 248 248 248 247 246 245 244 244 243 243 243 243 243 243 243 243 244 244 244 245 246 246 247 248 248 249 249 250 251
285 285 286 286 286 286 286 285 285 284 284 284 284 283 283 283 283 283 283 283 283 283 283 283 282 282 281 280 279 278 276 276 276 275 274 273 272 270 268 266 264 263 262 260 260 258 257 255 254 253 252 252 251 250 250 249 249 249 249 248 247 246 246 245 245 245 245 244 244 244 244 244 244 245 245 245 246 246 247 247 247 248 249 249 250
284 285 285 285 285 285 285 284 284 284 283 283 283 283 283 283 283 283 283 283 284 284 284 284 284 283 283 282 280 279 278 276 276 275 274 273 272 271 269 267 265 263 262 261 260 259 258 256 255 253 252 252 251 250 250 250 249 249 249 249 249 248 248 248 247 247 247 246 246 246 246 246 246 247 247 247 247 248 248 249 249 250 250 251 252
284 284 284 284 284 284 284 283 283 283 283 283 283 284 284 284 284 284 285 285 285 285 285 284 284 284 283 283 282 281 279 277 276 275 274 273 272 271 270 268 266 264 262 261 260 259 258 257 256 254 252 251 251 250 250 249 249 249 249 249 249 249 249 249 249 249 248 248 248 248 248 248 248 248 248 248 248 249 249 250 251 251 252 253 253
283 283 283 283 283 283 282 282 282 282 283 283 284 285 285 285 286 286 287 288 289 288 287 286 285 284 283 283 283 282 281 279 277 275 274 273 272 272 270 269 267 265 263 261 260 258 257 257 256 255 253 252 251 250 249 249 248 248 248 249 249 249 249 250 250 250 250 249 249 249 248 248 248 248 249 249 249 249 250 251 251 252 253 254 255
Height
10461 10461 10461 10461 10461 10461 10460 10460 10459 10458 10458 10457 10457 10456 10456 10456 10456 10457 10458 10458 10460 10460 10461 10462 10462 10463 10464 10465 10466 10467 10467 10469 10471 10473 10475 10476 10477 10478 10479 10480 10483 10485 10486 10488 10489 10490 10492 10495 10497 10499 10499 10501 10506 10508 10508 10509 10508 10507 10510 10512 10515 10519 10520 10522 10529 10532 10530 10530 10533 10534 10535 10538 10541 10542 10543 10544 10545 10547 10549 10551 10551 10549 10550 10551 10551
10439 10439 10439 10439 10440 10440 10439 10439 10438 10437 10437 10436 10435 10434 10434 10434 10434 10435 10435 10436 10437 10438 10439 10440 10442 10443 10444 10445 10445 10446 10447 10448 10449 10452 10454 10456 10458 10459 10461 10463 10465 10467 10469 10471 10471 10472 10475 10478 10481 10481 10481 10484 10489 10491 10492 10493 10492 10493 10494 10496 10498 10502 10504 10507 10511 10515 10517 10519 10518 10519 10522 10525 10527 10527 10529 10531 10532 10535 10538 10538 10538 10537 10537 10539 10539
10417 10417 10417 10417 10417 10418 10417 10417 10416 10415 10415 10414 10413 10412 10411 10411 10410 10411 10411 10412 10414 10415 10416 10417 10418 10420 10422 10424 10425 10425 10426 10427 10428 10430 10433 10435 10438 10439 10441 10443 10446 10449 10451 10453 10454 10455 10458 10461 10463 10463 10464 10468 10473 10475 10475 10475 10475 10477 10478 10479 10481 10484 10486 10489 10493 10497 10501 10504 10504 10505 10507 10509 10512 10513 10515 10519 10520 10522 10524 10523 10524 10523 10523 10525 10526
10394 10395 10395 10394 10394 10394 10394 10394 10393 10393 10392 10392 10391 10390 10389 10388 10387 10387 10387 10388 10389 10390 10391 10393 10394 10396 10398 10400 10403 10404 10405 10405 10406 10408 10410 10413 10416 10419 10420 10423 10426 10429 10431 10433 10435 10437 10440 10443 10445 10445 10446 10451 10456 10458 10457 10458 10458 10460 10462 10463 10464 10466 10467 10469 10474 10479 10483 10488 10491 10492 10491 10493 10497 10499 10502 10505 10507 10507 10508 10509 10510 10509 10509 10511 10512
10373 10372 10372 10371 10371 10370 10369 10369 10369 10369 10368 10368 10367 10366 10366 10365 10364 10364 10364 10364 10365 10365 10367 10368 10369 10371 10373 10375 10377 10380 10382 10383 10384 10386 10387 10390 10393 10396 10399 10401 10405 10408 10411 10413 10416 10418 10421 10424 10425 10426 10428 10433 10438 10439 10439 10440 10441 10443 10446 10448 10447 10447 10447 10449 10455 10459 10464 10471 10477 10478 10478 10479 10482 10484 10487 10490 10491 10492 10493 10494 10495 10495 10495 10496 10497
10351 10350 10350 10349 10348 10347 10346 10345 10345 10345 10344 10343 10342 10341 10341 10341 10340 10340 10340 10340 10341 10341 10342 10343 10345 10346 10349 10351 10353 10355 10357 10360 10362 10363 10364 10366 10369 10372 10376 10379 10382 10385 10389 10392 10395 10397 10401 10404 10405 10406 10410 10414 10417 10418 10419 10421 10423 10426 10430 10431 10430 10428 10427 10431 10435 10439 10444 10453 10460 10464 10466 10467 10467 10469 10471 10473 10476 10478 10478 10480 10481 10481 10479 10479 10479
10328 10328 10327 10326 10325 10324 10323 10323 10322 10321 10320 10318 10317 10316 10316 10316 10316 10316 10316 10316 10317 10318 10319 10320 10322 10323 10324 10326 10328 10330 10333 10335 10337 10339 10341 10342 10345 10348 10352 10355 10359 10362 10366 10369 10373 10376 10379 10382 10384 10386 10390 10394 10397 10398 10399 10401 10405 10408 10411 10413 10412 10410 10410 10413 10416 10418 10423 10432 10441 10449 10453 10453 10452 10454 10455 10457 10460 10464 10465 10464 10462 10461 10461 10461 10463
10306 10305 10304 10303 10303 10302 10301 10301 10300 10299 10297 10295 10293 10292 10292 10292 10292 10292 10293 10293 10293 10294 10296 10298 10300 10301 10302 10303 10305 10307 10309 10311 10313 10314 10317 10319 10322 10325 10328 10331 10335 10339 10343 10347 10350 10354 10357 10360 10363 10366 10369 10372 10375 10377 10379 10382 10385 10389 10392 10392 10392 10392 10393 10394 10396 10398 10402 10409 10420 10430 10436 10438 10438 10440 10441 10442 10445 10449 10446 10440 10440 10443 10445 10446 10448
10285 10283 10282 10281 10281 10281 10281 10281 10280 10279 10277 10275 10273 10272 10271 10270 10269 10269 10269 10270 10271 10272 10274 10276 10277 10279 10281 10281 10283 10285 10287 10289 10290 10290 10292 10295 10298 10302 10306 10309 10312 10316 10320 10324 10328 10332 10335 10338 10341 10345 10347 10351 10354 10356 10359 10362 10364 10369 10373 10372 10371 10373 10375 10376 10377 10379 10383 10388 10398 10410 10418 10422 10425 10425 10426 10428 10429 10427 10422 10420 10424 10428 10428 10430 10434
10264 10263 10263 10262 10262 10262 10263 10263 10262 10261 10259 10257 10255 10253 10251 10250 10248 10247 10247 10247 10249 10251 10253 10255 10256 10257 10259 10261 10263 10264 10266 10268 10269 10269 10270 10271 10273 10277 10282 10287 10291 10294 10298 10302 10306 10310 10313 10317 10320 10323 10326 10329 10332 10335 10338 10341 10345 10349 10352 10351 10351 10354 10357 10358 10359 10362 10364 10368 10377 10388 10397 10405 10409 10409 10409 10410 10407 10404 10403 10405 10408 10408 10410 10415 10420
10244 10244 10244 10244 10243 10243 10244 10244 10243 10242 10240 10238 10237 10235 10233 10231 10229 10227 10226 10227 10228 10230 10233 10235 10236 10236 10238 10240 10242 10244 10246 10248 10249 10249 10249 10250 10251 10254 10258 10263 10268 10273 10277 10281 10285 10288 10291 10295 10298 10302 10305 10309 10311 10313 10316 10320 10324 10328 10330 10330 10332 10335 10338 10340 10343 10344 10345 10349 10357 10367 10377 10386 10391 10391 10390 10389 10387 10386 10386 10386 10386 10388 10394 10400 10403
10225 10225 10224 10224 10224 10223 10224 10224 10224 10222 10221 10219 10217 10216 10215 10214 10213 10211 10210 10209 10209 10210 10212 10214 10215 10216 10217 10219 10222 10223 10225 10228 10229 10228 10229 10230 10231 10232 10236 10241 10245 10250 10256 10260 10264 10268 10271 10274 10277 10281 10285 10289 10290 10292 10295 10299 10303 10306 10308 10309 10312 10316 10319 10322 10325 10326 10326 10330 10338 10347 10358 10367 10370 10370 10372 10371 10369 10366 10364 10364 10367 10371 10377 10381 10384
10206 10206 10205 10204 10203 10202 10202 10202 10202 10202 10200 10198 10198 10198 10198 10197 10196 10195 10194 10193 10193 10193 10194 10194 10194 10195 10195 10197 10200 10203 10206 10208 10208 10207 10208 10209 10210 10212 10215 10220 10225 10229 10234 10238 10243 10247 10251 10254 10257 10261 10264 10268 10270 10273 10276 10279 10281 10283 10286 10289 10292 10297 10301 10304 10306 10307 10308 10312 10319 10329 10341 10346 10346 10349 10352 10350 10347 10345 10344 10347 10351 10354 10358 10362 10364
10189 10188 10187 10186 10183 10182 10180 10180 10180 10180 10180 10179 10179 10180 10179 10179 10178 10177 10176 10177 10177 10176 10176 10176 10176 10176 10175 10175 10178 10182 10186 10189 10187 10186 10186 10188 10189 10190 10193 10200 10206 10211 10214 10218 10221 10226 10230 10234 10238 10243 10245 10246 10249 10253 10256 10258 10260 10262 10265 10269 10274 10279 10282 10285 10288 10289 10291 10294 10302 10313 10321 10322 10323 10328 10330 10328 10328 10328 10328 10331 10335 10336 10340 10343 10345
10172 10170 10170 10168 10165 10162 10160 10159 10160 10160 10160 10160 10160 10160 10160 10159 10160 10159 10158 10158 10159 10159 10159 10159 10158 10158 10158 10157 10157 10161 10166 10168 10166 10165 10166 10167 10167 10167 10170 10177 10186 10192 10197 10200 10202 10205 10209 10212 10217 10224 10227 10227 10230 10233 10235 10237 10239 10242 10246 10250 10256 10260 10262 10267 10271 10273 10274 10277 10284 10295 10300 10300 10302 10307 10308 10310 10313 10313 10313 10315 10317 10318 10322 10327 10331
10153 10152 10151 10149 10146 10143 10142 10142 10142 10142 10141 10141 10141 10141 10141 10140 10140 10139 10138 10139 10140 10140 10140 10140 10140 10141 10141 10140 10139 10142 10147 10148 10145 10144 10145 10147 10147 10147 10148 10154 10162 10170 10177 10182 10184 10186 10189 10192 10197 10203 10207 10209 10212 10213 10213 10216 10219 10224 10229 10233 10237 10241 10245 10250 10255 10256 10257 10260 10267 10275 10279 10280 10283 10287 10290 10294 10298 10297 10297 10298 10301 10304 10309 10313 10318
10135 10134 10132 10130 10127 10126 10125 10124 10125 10124 10123 10122 10122 10122 10121 10121 10120 10119 10118 10119 10121 10121 10120 10121 10122 10123 10124 10124 10122 10123 10128 10131 10128 10125 10126 10126 10126 10126 10129 10133 10140 10147 10155 10162 10165 10167 10170 10173 10176 10181 10187 10191 10193 10193 10191 10193 10200 10208 10213 10216 10220 10223 10229 10235 10237 10238 10240 10244 10248 10255 10260 10263 10266 10269 10272 10278 10281 10281 10281 10284 10288 10291 10294 10298 10303
10117 10115 10114 10112 10110 10109 10107 10106 10107 10107 10106 10105 10104 10104 10103 10101 10100 10099 10098 10100 10104 10105 10103 10103 10105 10106 10106 10107 10107 10106 10110 10115 10113 10108 10107 10107 10105 10106 10109 10113 10119 10127 10135 10141 10144 10146 10150 10154 10156 10159 10166 10172 10174 10173 10171 10173 10180 10189 10195 10198 10201 10208 10217 10221 10218 10218 10222 10225 10229 10235 10241 10245 10248 10250 10254 10260 10264 10265 10268 10272 10274 10275 10277 10283 10288
10100 10099 10098 10096 10093 10091 10089 10088 10088 10088 10088 10088 10086 10086 10085 10084 10083 10082 10081 10083 10086 10088 10088 10086 10087 10089 10088 10089 10091 10091 10093 10098 10097 10091 10089 10088 10086 10086 10090 10094 10100 10108 10116 10121 10124 10126 10129 10136 10139 10140 10145 10151 10153 10152 10152 10154 10160 10168 10175 10178 10183 10195 10204 10202 10197 10198 10203 10207 10212 10217 10221 10226 10230 10233 10237 10242 10246 10249 10253 10256 10256 10259 10263 10268 10271
10086 10084 10083 10080 10077 10075 10073 10071 10071 10070 10069 10069 10070 10069 10069 10067 10067 10066 10065 10066 10067 10070 10072 10070 10069 10073 10073 10071 10072 10074 10076 10079 10080 10075 10070 10069 10068 10067 10069 10076 10085 10092 10095 10098 10101 10106 10111 10117 10122 10125 10127 10130 10131 10130 10133 10136 10140 10148 10155 10159 10168 10180 10182 10175 10175 10183 10187 10189 10194 10198 10202 10207 10212 10217 10222 10226 10230 10235 10238 10239 10241 10245 10249 10251 10254
10071 10069 10067 10065 10062 10060 10057 10055 10054 10054 10053 10053 10054 10054 10051 10048 10049 10050 10049 10051 10053 10054 10056 10054 10053 10056 10057 10054 10053 10055 10056 10057 10060 10059 10054 10051 10051 10049 10049 10058 10068 10074 10076 10077 10079 10086 10094 10101 10105 10107 10109 10110 10110 10110 10112 10116 10122 10129 10136 10143 10154 10160 10155 10151 10159 10167 10169 10172 10178 10182 10186 10192 10197 10202 10208 10212 10216 10221 10223 10225 10227 10231 10232 10234 10239
10057 10055 10052 10050 10047 10045 10043 10041 10040 10040 10039 10037 10037 10037 10034 10031 10032 10035 10035 10037 10038 10038 10038 10036 10036 10040 10042 10039 10036 10036 10036 10036 10038 10041 10038 10034 10033 10033 10033 10040 10049 10052 10055 10060 10063 10066 10075 10083 10087 10089 10090 10091 10093 10093 10093 10096 10102 10110 10120 10129 10135 10137 10134 10136 10144 10148 10150 10157 10163 10167 10172 10178 10183 10189 10194 10198 10202 10205 10208 10210 10213 10215 10216 10218 10223
10043 10040 10037 10035 10033 10031 10029 10028 10025 10024 10023 10021 10021 10022 10020 10017 10017 10018 10019 10020 10021 10021 10020 10019 10020 10024 10027 10025 10021 10019 10018 10017 10017 10020 10021 10018 10016 10017 10018 10023 10030 10032 10034 10043 10049 10051 10055 10061 10068 10072 10073 10073 10075 10076 10077 10079 10083 10092 10104 10112 10115 10116 10117 10121 10129 10133 10136 10142 10147 10152 10158 10164 10168 10174 10179 10183 10186 10189 10192 10195 10198 10199 10201 10203 10206
10028 10026 10023 10021 10020 10017 10015 10012 10010 10008 10006 10006 10006 10007 10006 10004 10003 10002 10002 10003 10005 10005 10003 10003 10004 10007 10009 10009 10005 10001 10000 10001 9999 9999 10002 10002 10001 10002 10003 10006 10010 10013 10015 10023 10032 10036 10037 10041 10046 10051 10054 10054 10056 10059 10061 10065 10069 10077 10087 10093 10094 10097 10100 10105 10114 10121 10124 10127 10133 10139 10144 10148 10151 10157 10163 10166 10169 10172 10176 10179 10181 10182 10185 10187 10189
10014 10012 10010 10008 10005 10002 10000 9997 9994 9992 9991 9990 9991 9992 9991 9990 9989 9988 9986 9986 9987 9987 9987 9987 9988 9990 9992 9991 9989 9985 9983 9984 9984 9983 9983 9986 9986 9987 9989 9992 9994 9996 9998 10005 10013 10018 10020 10021 10023 10028 10033 10037 10040 10043 10046 10051 10056 10062 10069 10072 10072 10076 10084 10092 10099 10105 10110 10116 10121 10125 10128 10131 10134 10139 10143 10146 10151 10155 10160 10163 10165 10167 10169 10172 10174
10001 9999 9995 9993 9990 9987 9986 9984 9980 9977 9976 9975 9976 9976 9976 9975 9973 9971 9970 9970 9971 9971 9971 9972 9972 9973 9974 9974 9973 9971 9968 9968 9969 9968 9967 9969 9970 9971 9974 9978 9980 9981 9982 9988 9995 10000 10003 10003 10003 10007 10012 10018 10024 10028 10033 10039 10043 10046 10052 10055 10056 10059 10068 10077 10084 10089 10095 10101 10106 10108 10111 10113 10116 10120 10124 10129 10134 10140 10144 10148 10150 10152 10155 10157 10159
9987 9984 9980 9978 9976 9973 9972 9970 9967 9964 9962 9961 9961 9960 9959 9958 9957 9955 9954 9955 9956 9956 9955 9956 9956 9957 9958 9957 9955 9954 9953 9952 9953 9952 9951 9952 9954 9955 9958 9962 9964 9965 9967 9972 9978 9983 9986 9986 9986 9989 9994 10000 10007 10014 10021 10026 10029 10031 10035 10040 10043 10045 10050 10057 10064 10071 10078 10083 10087 10090 10093 10095 10099 10105 10110 10115 10119 10123 10128 10132 10135 10137 10140 10142 10143
9972 9969 9965 9963 9962 9960 9958 9956 9955 9952 9949 9947 9946 9945 9943 9942 9941 9941 9940 9940 9941 9941 9940 9941 9941 9941 9942 9941 9939 9937 9936 9935 9936 9936 9935 9936 9936 9938 9941 9945 9947 9949 9952 9956 9960 9964 9968 9971 9973 9976 9980 9985 9991 9998 10004 10010 10012 10014 10016 10020 10024 10029 10033 10037 10044 10052 10060 10065 10068 10071 10075 10079 10085 10091 10095 10098 10103 10107 10112 10116 10119 10121 10123 10125 10126
9957 9954 9951 9950 9949 9947 9945 9943 9942 9940 9937 9933 9931 9929 9928 9927 9927 9925 9924 9924 9925 9927 9927 9926 9925 9926 9927 9925 9923 9922 9920 9919 9920 9922 9921 9921 9921 9922 9925 9929 9931 9933 9935 9938 9941 9946 9952 9957 9961 9964 9966 9970 9976 9981 9986 9990 9993 9995 9998 10001 10004 10009 10016 10021 10028 10035 10041 10045 10048 10053 10058 10064 10070 10075 10079 10082 10086 10090 10095 10099 10103 10105 10107 10108 10110
9944 9940 9939 9938 9936 9934 9932 9931 9929 9927 9924 9921 9918 9915 9913 9912 9912 9912 9910 9909 9909 9911 9913 9913 9911 9911 9912 9910 9908 9907 9906 9904 9905 9906 9907 9907 9907 9908 9910 9913 9915 9917 9919 9920 9924 9931 9939 9945 9948 9950 9951 9953 9958 9963 9968 9972 9974 9976 9980 9983 9986 9989 9996 10004 10013 10019 10022 10025 10029 10035 10042 10048 10054 10059 10063 10067 10070 10074 10078 10082 10086 10088 10090 10092 10093
9932 9929 9927 9926 9924 9921 9920 9918 9916 9914 9911 9909 9907 9904 9900 9897 9896 9897 9897 9897 9896 9895 9897 9899 9898 9898 9898 9896 9893 9891 9891 9890 9890 9891 9892 9893 9894 9895 9896 9898 9900 9902 9904 9906 9911 9919 9927 9931 9933 9933 9933 9935 9939 9944 9949 9953 9957 9960 9962 9964 9967 9971 9977 9986 9995 10002 10005 10008 10012 10018 10025 10031 10037 10042 10047 10051 10054 10058 10062 10065 10068 10071 10073 10075 10077
9920 9918 9916 9915 9912 9909 9907 9906 9904 9902 9900 9897 9894 9892 9890 9886 9882 9881 9881 9882 9883 9882 9883 9884 9885 9885 9884 9883 9880 9877 9876 9876 9877 9878 9879 9880 9881 9882 9882 9883 9885 9888 9890 9894 9901 9908 9912 9914 9916 9916 9916 9917 9921 9926 9931 9936 9942 9946 9946 9946 9950 9955 9961 9968 9976 9982 9987 9992 9997 10002 10009 10015 10020 10025 10029 10033 10037 10041 10044 10047 10051 10054 10057 10060 10063
9908 9906 9905 9903 9901 9898 9896 9894 9892 9890 9888 9886 9883 9881 9879 9877 9873 9869 9866 9866 9867 9869 9870 9871 9871 9871 9870 9869 9868 9866 9864 9863 9864 9865 9867 9868 9868 9869 9869 9870 9872 9874 9878 9883 9890 9893 9894 9897 9900 9900 9899 9901 9904 9909 9915 9921 9927 9930 9930 9931 9935 9940 9946 9952 9957 9962 9970 9977 9983 9988 9993 9998 10002 10007 10011 10015 10019 10022 10026 10031 10035 10039 10043 10047 10049
9895 9894 9893 9892 9890 9887 9885 9883 9881 9879 9877 9874 9873 9870 9868 9866 9864 9861 9857 9853 9851 9853 9856 9858 9859 9859 9858 9855 9853 9853 9853 9852 9852 9852 9854 9855 9856 9857 9858 9858 9859 9861 9865 9870 9875 9877 9878 9880 9884 9885 9885 9886 9889 9895 9901 9907 9910 9913 9916 9918 9921 9925 9931 9937 9941 9947 9954 9962 9968 9974 9978 9981 9984 9989 9993 9997 10001 10005 10011 10016 10021 10025 10029 10032 10034
9884 9882 9881 9880 9879 9876 9875 9873 9871 9868 9866 9864 9862 9860 9857 9855 9854 9852 9849 9846 9842 9839 9840 9842 9844 9846 9847 9844 9841 9840 9841 9841 9841 9841 9842 9842 9844 9845 9846 9846 9846 9848 9852 9856 9860 9862 9863 9865 9868 9870 9872 9873 9876 9882 9888 9891 9894 9898 9902 9905 9908 9912 9918 9924 9928 9933 9938 9944 9951 9958 9961 9963 9966 9970 9975 9980 9985 9990 9996 10001 10005 10009 10012 10015 10017
9873 9871 9869 9868 9867 9865 9863 9862 9860 9858 9855 9853 9851 9849 9847 9845 9843 9841 9839 9837 9834 9831 9829 9829 9829 9831 9834 9834 9831 9829 9829 9829 9829 9830 9830 9831 9832 9832 9833 9833 9834 9835 9839 9843 9846 9848 9850 9852 9853 9855 9858 9860 9864 9869 9874 9876 9879 9884 9889 9893 9896 9900 9905 9910 9915 9919 9923 9928 9934 9940 9944 9948 9950 9954 9958 9965 9970 9976 9981 9985 9990 9993 9997 10000 10003
9863 9861 9859 9857 9855 9853 9851 9850 9849 9847 9845 9843 9840 9838 9836 9834 9833 9831 9829 9828 9826 9823 9821 9819 9818 9818 9820 9822 9821 9819 9818 9818 9818 9819 9819 9820 9821 9821 9821 9821 9822 9824 9827 9830 9833 9835 9836 9837 9839 9841 9844 9849 9854 9858 9861 9863 9866 9871 9876 9880 9884 9888 9892 9898 9902 9906 9909 9914 9918 9924 9928 9932 9936 9940 9944 9950 9956 9961 9966 9971 9975 9979 9982 9986 9989
9852 9851 9849 9846 9845 9843 9840 9838 9837 9836 9834 9833 9831 9828 9827 9825 9823 9821 9819 9818 9817 9814 9812 9811 9809 9807 9807 9809 9809 9809 9809 9808 9808 9808 9809 9809 9810 9810 9810 9810 9810 9812 9815 9818 9821 9822 9823 9824 9826 9829 9833 9837 9842 9846 9848 9850 9853 9857 9862 9867 9871 9875 9880 9885 9890 9894 9898 9901 9904 9908 9912 9916 9921 9927 9932 9938 9943 9948 9953 9957 9960 9964 9968 9972 9975
9842 9840 9838 9837 9835 9833 9831 9829 9827 9825 9824 9822 9821 9819 9817 9815 9814 9812 9810 9808 9807 9806 9803 9802 9801 9799 9798 9797 9797 9798 9798 9799 9799 9798 9798 9799 9800 9799 9799 9800 9801 9801 9804 9807 9809 9811 9812 9813 9815 9818 9822 9825 9829 9831 9834 9837 9839 9843 9848 9854 9858 9863 9868 9873 9877 9881 9885 9888 9891 9895 9898 9902 9907 9913 9921 9927 9932 9935 9939 9942 9946 9950 9954 9957 9960
9832 9830 9828 9827 9825 9824 9822 9820 9818 9816 9814 9812 9811 9810 9808 9806 9804 9802 9801 9799 9798 9797 9795 9793 9791 9790 9789 9788 9787 9787 9787 9788 9789 9789 9789 9789 9789 9789 9790 9791 9791 9792 9793 9795 9798 9799 9801 9802 9804 9807 9809 9811 9813 9816 9820 9823 9827 9832 9837 9842 9847 9851 9856 9860 9865 9869 9873 9877 9880 9884 9886 9889 9893 9899 9907 9914 9919 9922 9925 9927 9931 9935 9939 9941 9944
9822 9821 9819 9817 9815 9814 9812 9810 9808 9806 9804 9802 9801 9800 9798 9797 9795 9794 9792 9790 9788 9787 9786 9785 9783 9781 9780 9779 9778 9777 9777 9777 9778 9779 9780 9780 9780 9780 9780 9781 9782 9783 9784 9785 9786 9788 9789 9791 9793 9794 9795 9797 9800 9804 9808 9812 9816 9821 9825 9830 9836 9840 9845 9849 9853 9857 9862 9865 9869 9872 9874 9877 9881 9886 9892 9898 9903 9907 9911 9914 9917 9921 9924 9926 9929
9813 9812 9810 9808 9806 9804 9802 9801 9799 9797 9795 9793 9792 9790 9789 9788 9787 9785 9783 9781 9780 9778 9777 9776 9775 9773 9772 9771 9769 9768 9768 9768 9768 9769 9770 9771 9771 9771 9771 9772 9773 9774 9774 9775 9776 9777 9778 9779 9781 9783 9785 9787 9791 9795 9799 9802 9806 9810 9815 9819 9824 9829 9833 9837 9841 9845 9849 9852 9855 9859 9861 9864 9868 9873 9878 9882 9887 9891 9895 9898 9902 9906 9909 9912 9915
9804 9803 9801 9799 9798 9795 9793 9791 9789 9787 9786 9784 9782 9781 9780 9779 9778 9776 9775 9773 9772 9770 9769 9768 9766 9765 9764 9762 9761 9760 9760 9759 9759 9760 9760 9761 9762 9762 9762 9763 9764 9765 9765 9766 9767 9767 9768 9769 9772 9775 9778 9780 9783 9786 9790 9793 9798 9802 9805 9809 9813 9817 9821 9825 9828 9831 9834 9838 9841 9845 9848 9851 9855 9859 9863 9867 9871 9874 9877 9881 9885 9889 9893 9896 9899
9795 9794 9793 9791 9790 9787 9785 9783 9780 9778 9777 9775 9773 9772 9771 9770 9769 9768 9766 9765 9764 9763 9761 9760 9758 9757 9756 9754 9753 9752 9751 9751 9751 9751 9751 9752 9753 9754 9754 9755 9755 9756 9757 9757 9758 9759 9759 9761 9764 9767 9770 9772 9775 9778 9782 9786 9789 9793 9796 9798 9802 9805 9809 9812 9815 9818 9821 9824 9827 9830 9834 9838 9841 9844 9848 9851 9855 9858 9861 9864 9868 9872 9876 9880 9884
9786 9785 9784 9783 9782 9780 9778 9775 9773 9770 9768 9766 9765 9764 9763 9762 9761 9759 9757 9757 9756 9755 9754 9752 9750 9749 9748 9747 9745 9744 9743 9743 9743 9743 9743 9743 9744 9745 9746 9747 9747 9748 9749 9749 9750 9751 9751 9753 9755 9758 9761 9764 9767 9770 9773 9776 9779 9782 9785 9788 9791 9794 9797 9800 9802 9805 9807 9810 9813 9816 9820 9824 9827 9830 9833 9836 9839 9843 9847 9850 9854 9858 9861 9865 9868
9778 9776 9775 9775 9773 9772 9770 9768 9765 9763 9761 9758 9757 9756 9755 9754 9753 9751 9750 9749 9748 9747 9746 9745 9743 9742 9741 9739 9738 9737 9736 9735 9735 9735 9735 9735 9736 9736 9737 9738 9739 9740 9740 9741 9742 9743 9744 9745 9747 9749 9752 9755 9758 9761 9764 9766 9768 9771 9774 9777 9780 9783 9785 9787 9790 9792 9795 9798 9801 9804 9808 9811 9814 9817 9820 9823 9826 9830 9834 9838 9843 9845 9848 9851 9854
9769 9768 9767 9766 9764 9763 9762 9760 9757 9756 9754 9751 9750 9748 9746 9745 9745 9744 9743 9742 9741 9739 9739 9738 9736 9735 9733 9732 9731 9730 9729 9728 9727 9727 9727 9727 9728 9728 9729 9730 9731 9732 9732 9733 9734 9735 9736 9737 9739 9741 9744 9747 9749 9751 9754 9756 9758 9761 9764 9767 9769 9772 9774 9776 9779 9782 9785 9788 9791 9794 9797 9800 9802 9805 9809 9811 9815 9818 9822 9825 9829 9831 9833 9836 9839
9761 9760 9759 9757 9755 9754 9753 9751 9749 9748 9746 9744 9743 9741 9739 9737 9736 9736 9735 9735 9734 9732 9731 9730 9729 9728 9726 9725 9724 9723 9722 9721 9720 9720 9719 9720 9720 9720 9721 9722 9723 9724 9725 9725 9726 9727 9728 9730 9732 9733 9735 9738 9740 9742 9745 9747 9750 9753 9756 9758 9760 9763 9765 9767 9770 9773 9776 9779 9782 9784 9787 9789 9792 9795 9797 9800 9803 9806 9809 9811 9814 9817 9819 9823 9825
9753 9752 9751 9750 9748 9746 9744 9743 9741 9740 9739 9737 9735 9734 9732 9730 9729 9728 9728 9727 9727 9725 9724 9723 9722 9721 9719 9718 9717 9716 9715 9715 9714 9713 9712 9712 9712 9712 9713 9714 9715 9716 9717 9718 9719 9720 9721 9722 9724 9725 9727 9730 9732 9734 9736 9739 9741 9744 9747 9749 9751 9754 9756 9759 9761 9764 9767 9770 9772 9775 9778 9780 9782 9785 9787 9789 9792 9794 9797 9799 9802 9805 9808 9811 9813
9746 9745 9744 9742 9741 9739 9737 9735 9734 9732 9731 9729 9728 9726 9725 9723 9721 9720 9720 9720 9720 9719 9717 9716 9715 9714 9713 9711 9710 9709 9708 9708 9707 9706 9706 9705 9705 9705 9706 9706 9707 9709 9709 9710 9711 9712 9713 9715 9716 9717 9719 9721 9723 9725 9728 9730 9733 9736 9738 9740 9743 9745 9747 9750 9752 9755 9757 9760 9763 9765 9768 9770 9773 9775 9777 9779 9781 9784 9786 9788 9791 9793 9795 9798 9800
9739 9738 9736 9735 9734 9732 9730 9728 9726 9725 9724 9722 9721 9719 9717 9715 9713 9713 9713 9713 9713 9712 9711 9709 9708 9707 9706 9705 9704 9702 9701 9700 9700 9700 9699 9698 9698 9698 9698 9699 9700 9701 9702 9703 9704 9705 9706 9707 9708 9709 9711 9713 9715 9717 9719 9722 9724 9727 9729 9731 9734 9736 9738 9741 9743 9745 9747 9750 9752 9755 9758 9760 9762 9764 9766 9768 9770 9773 9775 9777 9779 9781 9783 9786 9788